カタログに戻る

SL-24 R/B

運用中PO
NORAD 36509·ROCKET BODY·🇷🇺 Russia

打ち上げ Apr 8, 2010 から Baikonur Cosmodrome

Loading…

次のパス (今後24時間)

TLE

最新Source: Space-Track

元期: Sep 14, 2026, 07:07 UTC

1 36509U 10013B   26257.29678122  .00000057  00000-0  31728-4 0  9994
2 36509  91.9178  98.0074 0272370 321.2999  36.8933 13.93868759835854

AllMySatでSL-24 R/Bをリアルタイム追跡

Download on the App Store